Terminal Aerodrome Forecast
Issued by NWS

Home | Current Version | Previous Version | Text Only | Print | Product List | Glossary On
Versions: 1 2 3 4 5 6 7 8 9 10 11 12 13 14 15 16 17 18 19 20 21 22 23 24 25 26 27 28 29 30 31 32 33 34 35 36 37 38 39 40 41 42 43 44 45 46 47 48 49
000
FTUS43 KDDC 191559 AAC
TAFHYS
TAF AMD
KHYS 191559Z 1916/2012 16008KT 3SM BR OVC003
     FM191730 18012KT P6SM SCT003
     FM200200 16015G23KT P6SM VCSH OVC045
     FM200300 16015G24KT P6SM OVC020
     FM200900 18013KT P6SM BKN080
     FM201100 21011KT P6SM OVC040=

USA.gov is the U.S. government's official web portal to all federal, state and local government web resources and services.